Flag for Germany Weather past 2 weeks in Barsinghausen, Lower Saxony, Germany

Now
48 °F

Cool.


Feels Like: 43 °F
Forecast: 42 / 49 °F
Wind: 13 mph from Southwest

Location: Wunstorf Airport

Current Time: Mar 29, 2015 at 12:11:17 AM

Latest Report: Mar 28, 2015 at 11:20 PM


Visibility: 3 mi

Pressure: 29.71 "Hg

Humidity: 94%

Dew point: 46 °F

Location of BarsinghausenLocation

Historic Weather in Barsinghausen — Graph

°F

Barsinghausen temperature yesterday

Maximum temperature yesterday: 52 °F (at 1:20 PM)
Minimum temperature yesterday: 39 °F (at 6:20 AM)
Average temperature yesterday: 46 °F

Past Weeks' High & Low Weather Summary

 TemperatureHumidityPressure
High61 °F (Mar 25, 4:20 PM)100% (Mar 21, 1:20 AM)30.42 "Hg (Mar 21, 1:20 AM)
Low27 °F (Mar 23, 5:20 AM)33% (Mar 19, 5:20 PM)29.62 "Hg (Mar 25, 4:20 PM)
Average42 °F76%30.12 "Hg
* Reported Mar 13 10:20 PM — Mar 28 10:20 PM, Barsinghausen, Weather by CustomWeather, © 2015

Note: Actual official high and low records may vary slightly from our data, if they occured in-between our weather recording intervals... More about our weather records

Advertising

Barsinghausen weather history for previous 24 hours

 ConditionsComfort  
Time TempWeatherWind HumidityBarometerVisibility
10:20 PM
Sat, Mar 28
48 °FCool.15 mph87%29.74 "Hg3 mi
9:20 PM48 °FCool.13 mph87%29.77 "Hg4 mi
8:20 PM48 °FCool.15 mph82%29.83 "Hg3 mi
7:20 PM48 °FCool.13 mph76%29.83 "Hg4 mi
6:20 PM50 °FCool.15 mph67%29.86 "Hg5 mi
5:20 PM50 °FCool.10 mph62%29.89 "Hg4 mi
4:20 PM52 °FCool.12 mph54%29.89 "Hg5 mi
3:20 PM52 °FCool.13 mph50%29.95 "Hg6 mi
2:20 PM52 °FCool.15 mph50%29.95 "Hg6 mi
1:20 PM52 °FCool.10 mph47%30.01 "Hg6 mi
12:20 PM50 °FCool.12 mph50%30.04 "Hg5 mi
11:20 AM48 °FCool.9 mph58%30.07 "Hg6 mi
10:20 AM45 °FQuite cool.8 mph66%30.09 "HgN/A
9:20 AM43 °FQuite cool.8 mph81%30.12 "Hg6 mi
8:20 AM41 °FQuite cool.6 mph81%30.15 "Hg5 mi
7:20 AM39 °FChilly.6 mph93%30.15 "Hg4 mi
6:20 AM39 °FChilly.5 mph87%30.15 "Hg4 mi
5:20 AM41 °FQuite cool.6 mph87%30.15 "Hg4 mi
4:20 AM41 °FQuite cool.6 mph87%30.15 "Hg4 mi
3:20 AM41 °FQuite cool.6 mph87%30.15 "Hg4 mi
2:20 AM41 °FQuite cool.7 mph87%30.15 "Hg4 mi
1:20 AM43 °FQuite cool.7 mph81%30.15 "Hg4 mi
12:20 AM43 °FQuite cool.7 mph81%30.15 "Hg4 mi
Weather by CustomWeather, © 2015

See weather overviewHow to use our weather pages